Location: Kalispell
(48.1967°N, 114.3128°W)
Time: 11:01:18
(UTC-06:00)

Amateur Radio Satellites - All Passes

Search period start: 04 July 2015 10:31
Search period end: 05 July 2015 10:31
Location: Kalispell, 48.1967°N, 114.3128°W

Satellite Date Start Highest point End Downlink Frequencies (MHz)
Time Altitude Azimuth
ISS 04 Jul 10:31:55 10:35:10 84° 158° (SSE) 10:38:26 145.825
CANX-2 04 Jul 10:32:46 10:37:04 81° 285° (WNW) 10:41:22 2200.000
QB50P2 04 Jul 10:33:17 10:35:55 17° 62° (ENE) 10:38:41 145.880/145.840
POPSAT HIP 1 04 Jul 10:34:07 10:36:43 16° 61° (ENE) 10:39:26 437.405
BEESAT 2 04 Jul 10:36:24 10:39:37 21° 327° (NNW) 10:42:47 435.950
FUNcube-1 04 Jul 10:37:04 10:39:46 17° 90° (E) 10:42:37 145.935
CINEMA 3 04 Jul 10:43:32 10:47:40 61° 101° (E) 10:51:51 145.822/145.860
UWE-3 04 Jul 10:48:24 10:52:01 28° 94° (E) 10:55:44 435.000/436.395/437.385
GOMX 1 04 Jul 10:49:19 10:53:14 36° 291° (WNW) 10:57:01 467.674
DANDE 04 Jul 10:55:27 11:00:34 22° 293° (WNW) 11:04:38 436.750
VERMONT LUNAR 04 Jul 10:59:25 11:01:48 20° 181° (S) 11:04:14 437.305
ANTELSAT 04 Jul 11:07:00 11:11:15 72° 74° (ENE) 11:15:31 437.575/2403.000
QB50P1 04 Jul 11:11:39 11:15:32 36° 68° (ENE) 11:19:26 145.935-145.965
BRITE-PL 04 Jul 11:14:07 11:16:47 15° 300° (WNW) 11:19:13 437.365/2234.400
PHONESAT 2.4 04 Jul 11:14:38 11:17:04 18° 167° (SSE) 11:19:32 2401.200-2431.200
SEEDS 04 Jul 11:18:20 11:22:18 38° 291° (WNW) 11:26:14 437.485
TIGRISAT 04 Jul 11:19:25 11:23:42 89° 251° (WSW) 11:27:59 435.000
DX 1 04 Jul 11:22:03 11:25:03 18° 91° (E) 11:28:09 434.975-435.025
NANOSAT C BR1 04 Jul 11:25:42 11:29:46 48° 71° (ENE) 11:33:52 145.865
AAUSAT CUBESAT 2 04 Jul 11:29:50 11:33:48 40° 290° (WNW) 11:37:45 437.432
DUCHIFAT 1 04 Jul 11:32:38 11:36:46 56° 72° (ENE) 11:40:55 145.980
CUBEBUG 2 04 Jul 11:33:04 11:37:16 83° 285° (WNW) 11:41:32 437.445
DOVE 4 04 Jul 11:34:46 11:37:57 21° 296° (WNW) 11:41:03 437.250
ZACube-1 04 Jul 11:36:00 11:40:12 68° 102° (ESE) 11:44:28 437.345
POLYITAN 1 04 Jul 11:37:27 11:41:39 66° 73° (ENE) 11:45:51 437.675
UKube-1 04 Jul 11:42:45 11:46:26 27° 94° (E) 11:50:07 .
GONETS M04 04 Jul 11:42:48 11:50:58 40° 293° (WNW) 11:59:02
Oscar 11 04 Jul 11:45:15 11:49:34 61° 287° (WNW) 11:53:50 145.826/435.025
DELFI C3 04 Jul 11:46:18 11:50:23 78° 285° (WNW) 11:54:28 145.870
BUGSAT 1 04 Jul 11:50:14 11:54:23 58° 72° (ENE) 11:58:31 437.445
50 SAT 04 Jul 11:53:00 11:56:08 23° 93° (E) 11:59:21 437.505
AIST 2 04 Jul 11:54:27 11:57:25 17° 331° (NNW) 12:00:18 435.215
HO-68 04 Jul 11:55:24 12:01:53 38° 300° (WNW) 12:08:17 435.675
HUMSAT D 04 Jul 11:56:09 12:00:11 49° 99° (E) 12:04:16 437.325/437.525
COMPASS 1 04 Jul 11:56:24 11:59:39 21° 296° (WNW) 12:02:48 437.405
AISAT 04 Jul 11:58:31 12:02:11 25° 93° (E) 12:05:53 437.250
Cosmos 2499 04 Jul 11:59:11 12:06:11 76° 97° (E) 12:13:24 435.465 / 435.565
UNISAT 6 04 Jul 11:59:38 12:03:34 34° 264° (W) 12:07:28 437.425
CUTE 1.7 + AOD 2 04 Jul 12:07:03 12:09:04 13° 301° (WNW) 12:10:55 437.475
QB50P2 04 Jul 12:07:12 12:11:25 61° 259° (W) 12:15:39 145.880/145.840
POPSAT HIP 1 04 Jul 12:07:58 12:12:11 62° 259° (WSW) 12:16:23 437.405
ISS 04 Jul 12:08:38 12:11:45 44° 355° (N) 12:14:53 145.825
CANX-2 04 Jul 12:11:01 12:12:20 11° 302° (WNW) 12:13:28 2200.000
FUNcube-1 04 Jul 12:12:21 12:16:27 53° 288° (WNW) 12:20:36 145.935
CUBEBUG 1 04 Jul 12:17:00 12:20:23 22° 92° (E) 12:23:49 437.445
CINEMA 3 04 Jul 12:21:55 12:24:30 16° 298° (WNW) 12:26:58 145.822/145.860
UWE-3 04 Jul 12:24:50 12:28:35 32° 292° (WNW) 12:32:21 435.000/436.395/437.385
RS-15 04 Jul 12:27:23 12:39:01 76° 237° (WSW) 12:51:05 29.354- 29.394
ESTCUBE 1 04 Jul 12:29:49 12:33:58 34° 96° (E) 12:38:08 437.505/2401.250
VERMONT LUNAR 04 Jul 12:36:27 12:38:06 13° 197° (SSW) 12:39:45 437.305
ANTELSAT 04 Jul 12:46:35 12:48:38 13° 273° (W) 12:50:29 437.575/2403.000
VELOX 1 04 Jul 12:47:24 12:51:51 74° 103° (ESE) 12:56:14 145.980
QB50P1 04 Jul 12:47:55 12:51:30 25° 267° (W) 12:54:59 145.935-145.965
PHONESAT 2.4 04 Jul 12:51:43 12:54:29 22° 184° (S) 12:57:16 2401.200-2431.200
DX 1 04 Jul 12:57:24 13:01:39 51° 289° (WNW) 13:05:51 434.975-435.025
NANOSAT C BR1 04 Jul 13:02:51 13:05:54 19° 269° (W) 13:08:51 145.865
AO-7 04 Jul 13:08:23 13:09:41 11° 27° (NNE) 13:11:16 29.400- 29.500
DUCHIFAT 1 04 Jul 13:10:12 13:12:57 16° 271° (W) 13:15:34 145.980
CUBEBUG 2 04 Jul 13:12:15 13:13:22 11° 302° (WNW) 13:14:16 437.445
ZACube-1 04 Jul 13:13:39 13:16:08 15° 299° (WNW) 13:18:31 437.345
POLYITAN 1 04 Jul 13:15:44 13:18:03 14° 272° (W) 13:20:13 437.675
UKube-1 04 Jul 13:18:40 13:22:38 35° 293° (WNW) 13:26:32 .
YUBILEINY 04 Jul 13:18:59 13:24:34 19° 51° (NE) 13:30:32 435.215
SPROUT 04 Jul 13:19:06 13:22:49 29° 94° (E) 13:26:34 437.525
Oscar 19 04 Jul 13:24:53 13:29:37 40° 67° (ENE) 13:34:24 437.125/150
50 SAT 04 Jul 13:27:18 13:30:50 33° 291° (WNW) 13:34:21 437.505
BUGSAT 1 04 Jul 13:27:37 13:30:15 16° 271° (W) 13:32:44 437.445
Gurwin Techsat 1B 04 Jul 13:31:37 13:34:55 17° 57° (ENE) 13:38:23 435.225
HUMSAT D 04 Jul 13:32:39 13:35:38 19° 296° (WNW) 13:38:34 437.325/437.525
AISAT 04 Jul 13:34:47 13:38:53 38° 292° (WNW) 13:42:57 437.250
ITAMSAT 1 04 Jul 13:37:52 13:41:19 19° 58° (ENE) 13:44:56 435.822/435.867
ISS 04 Jul 13:45:14 13:48:28 61° 15° (NNE) 13:51:41 145.825
HO-68 04 Jul 13:47:14 13:47:46 10° 323° (NW) 13:47:58 435.675
CUBEBUG 1 04 Jul 13:52:48 13:56:58 43° 290° (WNW) 14:01:04 437.445
Cosmos 2499 04 Jul 13:54:45 14:00:19 23° 301° (WNW) 14:05:48 435.465 / 435.565
TISAT 1 04 Jul 14:00:46 14:04:52 50° 100° (E) 14:08:57 437.305
ESTCUBE 1 04 Jul 14:06:47 14:10:47 30° 294° (WNW) 14:14:42 437.505/2401.250
VELOX 1 04 Jul 14:25:14 14:27:53 15° 301° (WNW) 14:30:23 145.980
BEESAT 04 Jul 14:25:30 14:28:46 18° 89° (E) 14:32:10 436.000
PHONESAT 2.4 04 Jul 14:30:02 14:31:50 13° 200° (SSW) 14:33:36 2401.200-2431.200
SWISSCUBE 04 Jul 14:40:34 14:44:38 27° 93° (E) 14:48:44 437.505
RS-15 04 Jul 14:41:22 14:49:51 23° 259° (W) 14:57:55 29.354- 29.394
ITUPSAT 1 04 Jul 14:45:51 14:49:57 27° 93° (E) 14:54:05 437.325
AO-7 04 Jul 14:52:56 14:59:53 32° 52° (NE) 15:07:01 29.400- 29.500
SPROUT 04 Jul 14:55:06 14:58:55 32° 293° (WNW) 15:02:41 437.525
Oscar 19 04 Jul 15:04:30 15:09:05 31° 266° (W) 15:13:38 437.125/150
Gurwin Techsat 1B 04 Jul 15:08:57 15:14:17 86° 255° (WSW) 15:19:40 435.225
YUBILEINY 04 Jul 15:14:40 15:23:26 71° 77° (ENE) 15:32:13 435.215
ITAMSAT 1 04 Jul 15:15:03 15:20:17 79° 256° (WSW) 15:25:34 435.822/435.867
AIST 2 04 Jul 15:16:48 15:18:11 11° 18° (NNE) 15:19:38 435.215
ISS 04 Jul 15:21:46 15:24:46 34° 214° (SW) 15:27:44 145.825
BEESAT 3 04 Jul 15:23:05 15:26:25 24° 36° (NE) 15:29:46 437.485
JAS-2 04 Jul 15:25:48 15:30:35 39° 65° (ENE) 15:35:43 435.910
BEESAT 2 04 Jul 15:35:17 15:38:42 25° 36° (NE) 15:42:07 435.950
TISAT 1 04 Jul 15:37:18 15:40:19 19° 297° (WNW) 15:43:13 437.305
KKS-1 04 Jul 15:39:38 15:42:33 17° 90° (E) 15:45:36 437.445
Cosmos 2491 04 Jul 15:40:20 15:48:30 46° 88° (E) 15:56:45 435.465 / 435.565
HORYU 2 04 Jul 15:41:56 15:45:49 31° 66° (ENE) 15:49:45 437.375
BEESAT 04 Jul 16:02:19 16:07:05 61° 288° (WNW) 16:11:48 436.000
PCSat 04 Jul 16:03:00 16:07:17 25° 110° (ESE) 16:11:43 145.827
SWISSCUBE 04 Jul 16:18:07 16:22:39 41° 292° (WNW) 16:27:08 437.505
ITUPSAT 1 04 Jul 16:23:26 16:28:00 41° 292° (WNW) 16:32:29 437.325
STARS 04 Jul 16:30:49 16:34:49 34° 96° (E) 16:38:49 437.465
O/OREOS (USA 219) 04 Jul 16:41:48 16:45:12 21° 48° (NE) 16:48:41 437.305
SO-50 04 Jul 16:42:56 16:44:53 13° 109° (ESE) 16:47:05 436.795
AO-7 04 Jul 16:43:41 16:52:04 78° 253° (WSW) 17:00:30 29.400- 29.500
AIST 1 04 Jul 16:44:45 16:49:09 79° 99° (E) 16:53:36
Gurwin Techsat 1B 04 Jul 16:52:33 16:55:11 13° 276° (W) 16:57:33 435.225
AIST 2 04 Jul 16:54:07 16:58:00 34° 41° (NE) 17:01:52 435.215
ITAMSAT 1 04 Jul 16:58:50 17:00:47 12° 276° (W) 17:02:25 435.822/435.867
BEESAT 3 04 Jul 17:00:40 17:04:42 58° 237° (WSW) 17:08:38 437.485
Cosmos 2504 04 Jul 17:08:45 17:15:46 45° 71° (ENE) 17:23:20 435.465 / 435.565
JAS-2 04 Jul 17:11:19 17:15:56 31° 267° (W) 17:20:43 435.910
YUBILEINY 04 Jul 17:12:21 17:19:38 30° 278° (W) 17:26:42 435.215
BEESAT 2 04 Jul 17:13:01 17:17:03 55° 237° (WSW) 17:21:00 435.950
KKS-1 04 Jul 17:15:14 17:19:36 56° 288° (WNW) 17:23:56 437.445
HORYU 2 04 Jul 17:18:30 17:22:27 31° 265° (W) 17:26:23 437.375
MOZHAYETS 4 04 Jul 17:33:21 17:37:25 29° 94° (E) 17:41:30
Cosmos 2491 04 Jul 17:36:55 17:45:25 48° 290° (WNW) 17:53:52 435.465 / 435.565
BEESAT 04 Jul 17:43:24 17:44:02 10° 307° (NW) 17:44:27 436.000
PCSat 04 Jul 17:45:00 17:50:22 61° 309° (NW) 17:55:46 145.827
CUTE-I 04 Jul 17:51:59 17:56:26 28° 62° (ENE) 18:00:59 437.470
STARS 04 Jul 18:07:24 18:11:12 28° 294° (WNW) 18:14:55 437.465
SO-50 04 Jul 18:19:55 18:24:41 81° 125° (SE) 18:29:38 436.795
O/OREOS (USA 219) 04 Jul 18:20:34 18:25:02 60° 248° (WSW) 18:29:30 437.305
AIST 1 04 Jul 18:25:17 18:27:30 13° 299° (WNW) 18:29:32
Cubesat XI-IV 04 Jul 18:25:21 18:30:30 50° 68° (ENE) 18:35:43 437.490
AIST 2 04 Jul 18:32:43 18:36:36 35° 241° (WSW) 18:40:23 435.215
AO-7 04 Jul 18:40:49 18:46:26 18° 275° (W) 18:51:37 29.400- 29.500
CUSAT 1 04 Jul 18:45:01 18:45:39 11° 62° (ENE) 18:46:22 437.405
HO-68 04 Jul 18:56:13 18:59:56 15° 45° (NE) 19:03:53 435.675
Cosmos 2504 04 Jul 19:01:05 19:08:00 43° 271° (W) 19:15:18 435.465 / 435.565
MOZHAYETS 4 04 Jul 19:10:26 19:14:42 36° 292° (WNW) 19:18:55
BRITE-PL 04 Jul 19:11:29 19:15:02 19° 62° (ENE) 19:18:35 437.365/2234.400
CUTE-I 04 Jul 19:31:03 19:36:17 51° 261° (W) 19:41:32 437.470
PCSat 04 Jul 19:31:15 19:34:57 18° 332° (NNW) 19:38:34 145.827
DOVE 4 04 Jul 19:32:03 19:32:41 10° 57° (ENE) 19:33:31 437.250
CUBESAT XI-V 04 Jul 19:37:18 19:41:50 46° 98° (E) 19:46:20 437.345
Cosmos 2491 04 Jul 19:41:41 19:45:16 12° 318° (NW) 19:48:21 435.465 / 435.565
PRISM 04 Jul 19:46:11 19:48:59 17° 90° (E) 19:51:52 437.425
DANDE 04 Jul 19:48:58 19:51:54 47° 74° (ENE) 19:54:28 436.750
GONETS M04 04 Jul 19:50:55 19:58:33 34° 63° (ENE) 20:06:18
CUTE 1.7 + AOD 2 04 Jul 19:52:46 19:54:27 12° 59° (ENE) 19:56:17 437.475
CANX-2 04 Jul 19:55:33 19:57:46 14° 61° (ENE) 20:00:08 2200.000
SO-50 04 Jul 20:01:48 20:05:49 25° 328° (NNW) 20:09:52 436.795
Cubesat XI-IV 04 Jul 20:06:20 20:10:54 27° 268° (W) 20:15:23 437.490
CINEMA 3 04 Jul 20:14:56 20:16:27 12° 59° (ENE) 20:18:08 145.822/145.860
GOMX 1 04 Jul 20:22:19 20:27:06 44° 70° (ENE) 20:31:37 467.674
CUSAT 1 04 Jul 20:26:12 20:28:27 23° 266° (W) 20:30:33 437.405
STRAND 1 04 Jul 20:37:55 20:43:03 60° 102° (ESE) 20:48:07 437.568
SEEDS 04 Jul 20:38:31 20:42:01 27° 66° (ENE) 20:45:36 437.485
HO-68 04 Jul 20:39:24 20:46:21 58° 66° (ENE) 20:53:21 435.675
BRITE-PL 04 Jul 20:47:41 20:53:08 75° 259° (WSW) 20:58:13 437.365/2234.400
AAUSAT CUBESAT 2 04 Jul 20:49:06 20:52:25 24° 66° (ENE) 20:55:50 437.432
CUBEBUG 2 04 Jul 21:00:16 21:02:46 16° 62° (ENE) 21:05:22 437.445
ZACube-1 04 Jul 21:03:00 21:03:53 11° 58° (ENE) 21:04:56 437.345
DELFI C3 04 Jul 21:04:33 21:06:10 12° 60° (ENE) 21:07:56 145.870
DOVE 4 04 Jul 21:05:00 21:09:47 69° 73° (ENE) 21:14:18 437.250
Oscar 11 04 Jul 21:08:40 21:11:46 20° 63° (ENE) 21:14:57 145.826/435.025
COMPASS 1 04 Jul 21:14:41 21:18:40 48° 72° (ENE) 21:22:44 437.405
CUBESAT XI-V 04 Jul 21:15:13 21:19:02 24° 296° (WNW) 21:22:44 437.345
PCSat 04 Jul 21:20:09 21:20:42 10° 358° (N) 21:21:13 145.827
PRISM 04 Jul 21:20:39 21:24:46 51° 289° (WNW) 21:28:49 437.425
CUTE 1.7 + AOD 2 04 Jul 21:25:33 21:29:46 86° 257° (WSW) 21:34:02 437.475
CANX-2 04 Jul 21:29:00 21:33:12 72° 259° (WSW) 21:37:27 2200.000
FUNcube-1 04 Jul 21:36:28 21:39:36 21° 65° (ENE) 21:42:49 145.935
Cosmos 2499 04 Jul 21:44:38 21:51:35 36° 67° (ENE) 21:59:06 435.465 / 435.565
SO-50 04 Jul 21:45:59 21:48:04 12° 352° (N) 21:50:09 436.795
GONETS M04 04 Jul 21:47:31 21:56:08 66° 266° (W) 22:04:39
CINEMA 3 04 Jul 21:48:37 21:53:07 87° 69° (ENE) 21:57:26 145.822/145.860
UWE-3 04 Jul 21:49:06 21:52:56 35° 69° (ENE) 21:56:47 435.000/436.395/437.385
AUBIESAT-1 04 Jul 21:51:18 21:54:36 22° 99° (E) 21:58:09 437.475
GOMX 1 04 Jul 22:01:04 22:05:23 27° 267° (W) 22:09:25 467.674
SEEDS 04 Jul 22:13:54 22:17:43 33° 264° (W) 22:21:33 437.485
VELOX 1 04 Jul 22:14:21 22:16:42 15° 59° (ENE) 22:19:13 145.980
STRAND 1 04 Jul 22:17:52 22:21:53 23° 300° (WNW) 22:25:47 437.568
DX 1 04 Jul 22:20:54 22:24:32 27° 65° (ENE) 22:28:15 434.975-435.025
AAUSAT CUBESAT 2 04 Jul 22:24:01 22:27:52 37° 263° (W) 22:31:45 437.432
M-CUBED/EXP-1 PRIME 04 Jul 22:25:22 22:29:29 54° 107° (ESE) 22:33:53 437.505
HO-68 04 Jul 22:28:07 22:34:30 33° 266° (W) 22:40:47 435.675
BRITE-PL 04 Jul 22:30:43 22:32:29 11° 276° (W) 22:33:55 437.365/2234.400
CUBEBUG 2 04 Jul 22:34:49 22:39:04 63° 258° (WSW) 22:43:15 437.445
ZACube-1 04 Jul 22:35:25 22:39:37 83° 74° (ENE) 22:43:48 437.345
DELFI C3 04 Jul 22:36:42 22:40:42 80° 257° (WSW) 22:44:46 145.870
UKube-1 04 Jul 22:40:49 22:44:49 37° 68° (ENE) 22:48:51 .
50 SAT 04 Jul 22:40:50 22:43:49 22° 66° (ENE) 22:46:52 437.505
Oscar 11 04 Jul 22:43:27 22:47:38 50° 261° (W) 22:51:51 145.826/435.025
DOVE 4 04 Jul 22:45:03 22:48:01 16° 271° (W) 22:50:43 437.250
HUMSAT D 04 Jul 22:51:16 22:55:16 55° 72° (ENE) 22:59:17 437.325/437.525
COMPASS 1 04 Jul 22:51:44 22:54:39 18° 270° (W) 22:57:30 437.405
ANTELSAT 04 Jul 22:57:10 22:58:32 11° 86° (E) 23:00:09 437.575/2403.000
AISAT 04 Jul 22:59:31 23:03:37 36° 68° (ENE) 23:07:44 437.250
PCSat 04 Jul 23:03:22 23:06:32 16° 24° (NNE) 23:09:48 145.827
TIGRISAT 04 Jul 23:08:31 23:10:53 15° 88° (E) 23:13:26 435.000
FUNcube-1 04 Jul 23:11:44 23:15:43 42° 262° (W) 23:19:41 145.935
CUBEBUG 1 04 Jul 23:16:24 23:20:14 30° 66° (ENE) 23:24:08 437.445
AUBIESAT-1 04 Jul 23:25:31 23:29:30 45° 295° (WNW) 23:33:43 437.475
UWE-3 04 Jul 23:26:05 23:29:36 24° 267° (W) 23:33:00 435.000/436.395/437.385
SO-50 04 Jul 23:27:53 23:30:39 15° 17° (NNE) 23:33:29 436.795
CINEMA 3 04 Jul 23:29:46 23:30:59 11° 274° (W) 23:31:57 145.822/145.860
ESTCUBE 1 04 Jul 23:32:43 23:37:05 49° 70° (ENE) 23:41:31 437.505/2401.250
Cosmos 2499 04 Jul 23:37:33 23:45:08 58° 267° (W) 23:53:15 435.465 / 435.565
GONETS M04 04 Jul 23:47:02 23:51:23 14° 288° (WNW) 23:55:11
UNISAT 6 04 Jul 23:47:15 23:51:17 35° 97° (E) 23:55:23 437.425
VELOX 1 04 Jul 23:48:14 23:52:43 80° 256° (WSW) 23:57:12 145.980
QB50P2 04 Jul 23:49:50 23:52:32 17° 89° (E) 23:55:21 145.880/145.840
POPSAT HIP 1 04 Jul 23:50:30 23:53:07 16° 89° (E) 23:55:53 437.405
DX 1 04 Jul 23:56:34 00:00:40 37° 263° (W) 00:04:45 434.975-435.025
M-CUBED/EXP-1 PRIME 05 Jul 00:00:56 00:04:02 20° 301° (WNW) 00:07:12 437.505
50 SAT 05 Jul 00:14:47 00:18:18 34° 263° (W) 00:21:49 437.505
ZACube-1 05 Jul 00:15:41 00:16:39 10° 275° (W) 00:17:23 437.345
SPROUT 05 Jul 00:16:35 00:20:31 36° 68° (ENE) 00:24:29 437.525
UKube-1 05 Jul 00:17:23 00:21:04 26° 266° (W) 00:24:40 .
QB50P1 05 Jul 00:28:33 00:32:31 39° 97° (E) 00:36:29 145.935-145.965
HUMSAT D 05 Jul 00:28:51 00:31:25 15° 271° (W) 00:33:49 437.325/437.525
ANTELSAT 05 Jul 00:31:35 00:35:59 84° 285° (WNW) 00:40:27 437.575/2403.000
AISAT 05 Jul 00:36:26 00:40:16 27° 266° (W) 00:44:05 437.250
NANOSAT C BR1 05 Jul 00:42:29 00:46:38 54° 100° (E) 00:50:45 145.865
TIGRISAT 05 Jul 00:43:48 00:48:08 67° 286° (WNW) 00:52:32 435.000
PCSat 05 Jul 00:46:05 00:51:21 48° 47° (NE) 00:56:36 145.827
DUCHIFAT 1 05 Jul 00:49:15 00:53:25 62° 101° (E) 00:57:34 145.980
CUBEBUG 1 05 Jul 00:52:30 00:56:33 33° 264° (W) 01:00:34 437.445
POLYITAN 1 05 Jul 00:54:55 00:59:09 76° 102° (ESE) 01:03:21 437.675
TISAT 1 05 Jul 00:56:04 01:00:15 61° 73° (ENE) 01:04:26 437.305
BUGSAT 1 05 Jul 01:04:12 01:08:15 60° 101° (E) 01:12:14 437.445
SO-50 05 Jul 01:07:56 01:12:35 38° 40° (NE) 01:17:11 436.795
ESTCUBE 1 05 Jul 01:10:47 01:14:16 21° 269° (W) 01:17:40 437.505/2401.250
UNISAT 6 05 Jul 01:24:14 01:27:58 28° 294° (WNW) 01:31:43 437.425
QB50P2 05 Jul 01:24:40 01:28:48 53° 289° (WNW) 01:32:54 145.880/145.840
POPSAT HIP 1 05 Jul 01:25:16 01:29:24 54° 288° (WNW) 01:33:28 437.405
Cosmos 2499 05 Jul 01:34:25 01:36:55 11° 286° (WNW) 01:38:52 435.465 / 435.565
BEESAT 05 Jul 01:35:11 01:39:22 32° 65° (ENE) 01:43:39 436.000
Cosmos 2491 05 Jul 01:45:50 01:53:02 28° 59° (ENE) 02:00:23 435.465 / 435.565
SWISSCUBE 05 Jul 01:50:25 01:54:58 46° 69° (ENE) 01:59:36 437.505
SPROUT 05 Jul 01:53:02 01:56:42 26° 267° (W) 02:00:17 437.525
ITUPSAT 1 05 Jul 01:55:57 02:00:32 47° 69° (ENE) 02:05:11 437.325
QB50P1 05 Jul 02:04:49 02:08:13 23° 295° (WNW) 02:11:31 145.935-145.965
ANTELSAT 05 Jul 02:10:27 02:12:10 12° 302° (WNW) 02:13:42 437.575/2403.000
NANOSAT C BR1 05 Jul 02:19:12 02:22:07 18° 298° (WNW) 02:24:55 145.865
DUCHIFAT 1 05 Jul 02:26:10 02:28:49 16° 299° (WNW) 02:31:19 145.980
YUBILEINY 05 Jul 02:28:26 02:32:55 16° 74° (ENE) 02:37:52 435.215
PCSat 05 Jul 02:29:48 02:34:39 33° 247° (WSW) 02:39:24 145.827
POLYITAN 1 05 Jul 02:32:18 02:34:33 14° 300° (WNW) 02:36:38 437.675
TISAT 1 05 Jul 02:33:56 02:36:28 15° 271° (W) 02:38:51 437.305
BUGSAT 1 05 Jul 02:40:48 02:43:19 16° 299° (WNW) 02:45:41 437.445
KKS-1 05 Jul 02:41:04 02:44:43 26° 65° (ENE) 02:48:27 437.445
SO-50 05 Jul 02:48:30 02:53:14 43° 240° (WSW) 02:57:50 436.795
AIST 1 05 Jul 02:48:31 02:52:19 28° 70° (ENE) 02:56:07
RS-15 05 Jul 02:55:16 03:05:28 50° 114° (ESE) 03:16:08 29.354- 29.394
Oscar 19 05 Jul 03:11:26 03:16:34 70° 102° (ESE) 03:21:42 437.125/150
BEESAT 05 Jul 03:12:47 03:17:11 35° 264° (W) 03:21:34 436.000
Gurwin Techsat 1B 05 Jul 03:21:51 03:26:25 29° 93° (E) 03:31:01 435.225
ITAMSAT 1 05 Jul 03:24:37 03:29:05 28° 93° (E) 03:33:35 435.822/435.867
SWISSCUBE 05 Jul 03:29:09 03:33:04 24° 268° (W) 03:36:56 437.505
STARS 05 Jul 03:30:58 03:35:11 48° 70° (ENE) 03:39:26 437.465
ITUPSAT 1 05 Jul 03:34:48 03:38:42 24° 268° (W) 03:42:32 437.325
Cosmos 2491 05 Jul 03:42:15 03:51:01 78° 264° (W) 03:59:42 435.465 / 435.565
JAS-2 05 Jul 04:13:50 04:19:33 31° 93° (E) 04:25:56 435.910
KKS-1 05 Jul 04:17:01 04:21:13 39° 263° (W) 04:25:24 437.445
YUBILEINY 05 Jul 04:19:40 04:28:16 71° 95° (E) 04:36:57 435.215
AIST 1 05 Jul 04:26:07 04:30:00 31° 269° (W) 04:33:46
MOZHAYETS 4 05 Jul 04:38:39 04:42:56 41° 69° (ENE) 04:47:18
AO-7 05 Jul 04:41:41 04:48:39 29° 92° (E) 04:55:47 29.400- 29.500
Oscar 19 05 Jul 04:51:46 04:55:28 20° 301° (WNW) 04:59:03 437.125/150
Gurwin Techsat 1B 05 Jul 05:01:32 05:06:36 46° 292° (WNW) 05:11:39 435.225
ITAMSAT 1 05 Jul 05:03:48 05:08:48 45° 292° (WNW) 05:13:44 435.822/435.867
HORYU 2 05 Jul 05:05:27 05:09:36 37° 97° (E) 05:13:46 437.375
RS-15 05 Jul 05:06:52 05:17:45 62° 320° (NW) 05:29:05 29.354- 29.394
STARS 05 Jul 05:08:36 05:11:56 20° 269° (W) 05:15:09 437.465
CUBESAT XI-V 05 Jul 05:10:53 05:11:56 11° 55° (NE) 05:13:14 437.345
Cosmos 2491 05 Jul 05:40:59 05:46:35 18° 285° (WNW) 05:51:43 435.465 / 435.565
Cosmos 2504 05 Jul 05:45:26 05:50:57 27° 84° (E) 05:56:39 435.465 / 435.565
JAS-2 05 Jul 05:58:35 06:04:57 60° 290° (WNW) 06:12:03 435.910
MOZHAYETS 4 05 Jul 06:16:32 06:20:21 25° 268° (W) 06:24:07
YUBILEINY 05 Jul 06:18:27 06:26:01 31° 299° (WNW) 06:33:26 435.215
STRAND 1 05 Jul 06:20:08 06:23:50 21° 59° (ENE) 06:27:38 437.568
AO-7 05 Jul 06:33:54 06:42:18 74° 293° (WNW) 06:50:35 29.400- 29.500
PRISM 05 Jul 06:39:37 06:42:49 22° 64° (ENE) 06:46:07 437.425
Cubesat XI-IV 05 Jul 06:40:19 06:43:08 15° 86° (E) 06:46:11 437.490
HORYU 2 05 Jul 06:42:19 06:46:07 27° 295° (WNW) 06:49:53 437.375
CUBESAT XI-V 05 Jul 06:43:54 06:48:35 68° 73° (ENE) 06:53:18 437.345
BEESAT 2 05 Jul 07:12:43 07:13:41 11° 110° (ESE) 07:14:52 435.950
RS-15 05 Jul 07:22:51 07:32:54 35° 351° (N) 07:43:20 29.354- 29.394
DANDE 05 Jul 07:23:18 07:24:47 11° 87° (E) 07:26:35 436.750
Cosmos 2504 05 Jul 07:35:53 07:42:42 60° 284° (WNW) 07:49:36 435.465 / 435.565
CUTE-I 05 Jul 07:44:15 07:49:29 49° 99° (E) 07:54:40 437.470
M-CUBED/EXP-1 PRIME 05 Jul 07:45:10 07:46:42 13° 54° (NE) 07:48:25 437.505
JAS-2 05 Jul 07:45:46 07:49:04 14° 308° (NW) 07:52:15 435.910
CUSAT 1 05 Jul 07:53:07 07:57:45 24° 94° (E) 08:01:39 437.405
STRAND 1 05 Jul 07:57:27 08:02:35 68° 258° (WSW) 08:07:46 437.568
PRISM 05 Jul 08:14:02 08:18:02 42° 262° (W) 08:22:03 437.425
Cubesat XI-IV 05 Jul 08:18:39 08:24:05 88° 286° (WNW) 08:29:27 437.490
CUBESAT XI-V 05 Jul 08:23:32 08:26:34 16° 273° (W) 08:29:25 437.345
VERMONT LUNAR 05 Jul 08:25:26 08:26:15 11° 159° (SSE) 08:27:07 437.305
AO-7 05 Jul 08:27:46 08:33:53 23° 315° (NW) 08:39:47 29.400- 29.500
BEESAT 3 05 Jul 08:33:37 08:37:42 80° 127° (SE) 08:41:50 437.485
AIST 2 05 Jul 08:34:24 08:37:28 20° 114° (ESE) 08:40:39 435.215
O/OREOS (USA 219) 05 Jul 08:36:08 08:40:35 79° 114° (ESE) 08:45:05 437.305
AUBIESAT-1 05 Jul 08:42:44 08:45:55 43° 65° (ENE) 08:49:18 437.475
BEESAT 2 05 Jul 08:47:00 08:51:08 85° 128° (SE) 08:55:18 435.950
BRITE-PL 05 Jul 08:49:56 08:53:25 24° 91° (E) 08:56:51 437.365/2234.400
GONETS M04 05 Jul 08:57:28 09:04:48 32° 83° (E) 09:12:19
DANDE 05 Jul 09:00:46 09:07:39 68° 100° (E) 09:12:50 436.750
DOVE 4 05 Jul 09:02:23 09:03:51 12° 86° (E) 09:05:31 437.250
CUTE 1.7 + AOD 2 05 Jul 09:08:40 09:10:39 13° 87° (E) 09:12:51 437.475
CANX-2 05 Jul 09:11:43 09:14:17 16° 88° (E) 09:17:00 2200.000
M-CUBED/EXP-1 PRIME 05 Jul 09:17:50 09:21:07 58° 253° (WSW) 09:24:35 437.505
CUTE-I 05 Jul 09:24:47 09:29:21 29° 298° (WNW) 09:33:50 437.470
Cosmos 2504 05 Jul 09:33:59 09:36:51 12° 310° (NW) 09:39:22 435.465 / 435.565
CUSAT 1 05 Jul 09:34:25 09:40:17 50° 284° (WNW) 09:44:44 437.405
RS-15 05 Jul 09:38:14 09:48:56 43° 24° (NNE) 10:00:11 29.354- 29.394
ISS 05 Jul 09:38:32 09:41:42 53° 151° (SSE) 09:44:53 145.825
CINEMA 3 05 Jul 09:40:59 09:43:12 14° 88° (E) 09:45:37 145.822/145.860
HO-68 05 Jul 09:50:33 09:57:16 42° 97° (E) 10:04:02 435.675
SEEDS 05 Jul 09:54:14 09:58:01 30° 95° (E) 10:01:50 437.485
GOMX 1 05 Jul 09:58:27 10:02:42 71° 102° (ESE) 10:06:50 467.674
ANTELSAT 05 Jul 09:59:25 10:02:05 17° 61° (ENE) 10:04:52 437.575/2403.000
Cubesat XI-IV 05 Jul 10:00:08 10:03:30 17° 304° (NW) 10:06:41 437.490
VERMONT LUNAR 05 Jul 10:00:09 10:02:30 19° 175° (S) 10:04:51 437.305
AAUSAT CUBESAT 2 05 Jul 10:03:12 10:06:46 26° 93° (E) 10:10:21 437.432
TIGRISAT 05 Jul 10:10:51 10:13:57 20° 63° (ENE) 10:17:08 435.000
AIST 2 05 Jul 10:11:29 10:15:42 58° 312° (NW) 10:19:56 435.215
BEESAT 3 05 Jul 10:13:04 10:16:10 20° 327° (NNW) 10:19:14 437.485
DUCHIFAT 1 05 Jul 10:13:46 10:13:53 10° 57° (ENE) 10:14:13 145.980
DELFI C3 05 Jul 10:14:18 10:15:28 11° 86° (E) 10:16:51 145.870
O/OREOS (USA 219) 05 Jul 10:17:38 10:20:38 17° 315° (NW) 10:23:33 437.305
POLYITAN 1 05 Jul 10:18:33 10:20:05 12° 58° (ENE) 10:21:48 437.675
AUBIESAT-1 05 Jul 10:19:07 10:21:03 14° 265° (W) 10:22:55 437.475
ZACube-1 05 Jul 10:22:02 10:23:37 12° 86° (E) 10:25:26 437.345
CUBEBUG 2 05 Jul 10:22:40 10:25:41 19° 91° (E) 10:28:51 437.445
